User: anonymous
Location: Unspecified
(0.0000°N, 0.0000°E)
Time: 03:12:27
(UTC+00:00)
Language:

USA 186 - Orbit

View from above orbital plane
View from above orbital plane
View from above satellite
View from above satellite

Ground track
Ground track

The orbit data is extracted from the following two-line orbital elements,

1 28888U 05042A   14107.84600616 0.00035500  00000-0  31763-3 0    08
2 28888  96.9005 154.4516 0490172 159.5589 200.4410 14.88313751    08
Epoch (UTC): 17 April 2014 20:18:14
Eccentricity: 0.0490172
inclination: 96.9005°
perigee height: 261 km
apogee height: 945 km
right ascension of ascending node: 154.4516°
argument of perigee: 159.5589°
revolutions per day: 14.88313751
mean anomaly at epoch: 200.4410°
orbit number at epoch: 0

The dashed part of the orbit path shows where the satellite is in the earth's shadow,  

DLR